[[{"header":{"parameterUnit":"m.s-1","parameterCategory":1,"la1":30.2991,"la2":30.254,"lo1":-89.0895,"lo2":-89.0444,"dy":0.0017,"dx":0.0017,"nx":28,"ny":28,"refTime":"2025-09-03T09:00:00:Z","depth":0,"parameterNumber":2,"parameterNumberName":"U-component_of_WINDS"},"data":[0,0,0,0,0,0,0,0,0,0,0,0,0,0,0,0,0,0,0,0,0,0,0,0,0,0,0,0,0,0,0,0,0,0,0,0,0,0,0,0,0,0,0,0,0,0,0,0,0,0,0,0,0,0,0,0,0,0,2.7949,2.7949,0,2.8023,2.8024,2.8024,2.7977,2.7975,2.7973,2.7971,2.8045,2.8049,2.8053,0,0,0,0,0,0,0,0,0,0,0,0,0,2.7762,2.7766,2.7948,2.7949,2.795,2.8023,2.8024,2.8025,2.7978,2.7975,2.7972,2.797,2.8044,2.8049,2.8054,0,0,0,0,0,0,0,0,0,0,0,0,0,2.7841,2.7767,2.7948,2.7936,2.7935,2.8022,2.8024,2.8025,2.7978,2.7975,2.7972,2.7968,2.8043,2.8048,2.8054,2.8158,0,0,2.8073,2.8075,0,0,0,0,0,0,0,0,2.7836,2.7847,2.7937,2.7937,2.7936,2.7987,2.7985,2.8069,2.7979,2.7962,2.7971,2.7967,2.8029,2.8036,2.8057,2.8161,2.8164,2.8073,2.8077,2.808,2.8081,0,0,0,0,0,0,0,2.7831,2.7844,2.7978,2.7938,2.7938,2.7925,2.7932,2.8001,2.8013,2.7963,2.796,2.7969,2.8028,2.8051,2.8058,2.8166,2.8073,2.8079,2.8082,2.8085,2.8353,2.8357,0,0,0,0,0,0,2.7827,2.784,2.7975,2.798,2.7877,2.7931,2.7939,2.7974,2.8012,2.8015,2.7972,2.7967,2.8042,2.8051,2.8061,2.8181,2.808,2.8085,2.8089,2.835,2.8354,2.8358,0,0,0,0,0,0,2.7823,2.7839,2.7972,2.7909,2.7925,2.7938,2.7977,2.7978,2.8,2.8019,2.802,2.7994,2.804,2.8052,2.8133,2.8183,2.8088,2.8094,2.8346,2.8351,2.8356,2.8424,0,0,0,0,0,0,2.7818,2.7838,2.7879,2.791,2.7929,2.8045,2.7981,2.7981,2.8011,2.8005,2.8039,2.8042,2.8038,2.8124,2.8139,2.8189,2.8098,2.8341,2.8348,2.8354,2.8417,2.843,2.8442,0,0,0,0,0,2.7811,2.7896,2.7881,2.7898,2.798,2.8048,2.8058,2.8053,2.8016,2.8055,2.8066,2.8041,2.8175,2.8133,2.8149,2.8202,2.8338,2.8346,2.8354,2.8411,2.8428,2.8442,0,0,0,0,0,0,2.787,2.79,2.7884,2.7981,2.8012,2.804,2.809,2.8071,2.8114,2.8106,2.8097,2.8105,2.8189,2.8204,2.8156,2.8302,2.8251,2.8262,2.8289,2.8304,2.8317,2.831,2.8103,0,0,0,0,0,2.7895,2.7948,2.7971,2.8054,2.8071,2.8078,2.8108,2.81,2.8132,2.8145,2.8162,2.8193,2.8242,2.8274,2.8321,2.8419,2.8424,2.8463,2.8476,2.8486,2.8495,2.8544,2.8561,2.8384,2.8384,2.8384,0,0,2.7945,2.7968,2.8003,2.8067,2.809,2.8144,2.8089,2.815,2.8189,2.8154,2.823,2.8244,2.8278,2.8367,2.8407,2.8382,2.8545,2.8496,2.8504,2.8508,2.8554,2.8571,2.8586,2.8389,2.8388,2.8387,0,0,2.8065,2.8089,2.8159,2.8183,2.8218,2.8222,2.8239,2.8269,2.8276,2.8353,2.8326,2.8372,2.8458,2.8482,2.8505,2.863,2.8606,2.8645,2.871,2.8758,2.8772,2.8784,2.8825,2.884,2.8655,2.8655,2.8655,0,2.8123,2.8204,2.8197,2.8259,2.8286,2.8256,2.8325,2.8349,2.8398,2.8417,2.8388,2.8492,2.8513,2.8605,2.8635,2.8656,2.8673,2.8641,2.8771,2.8783,2.8794,2.8833,2.8849,2.8659,2.8659,2.8658,2.8658,0,2.8272,2.8329,2.8381,2.8428,2.8461,2.8527,2.8527,2.8562,2.8551,2.8557,2.8633,2.8657,2.8706,2.8728,2.8719,2.8818,2.88,2.8772,2.872,2.8815,2.8851,2.8867,2.8665,2.8664,2.8663,2.8662,0,0,2.8432,2.8471,2.849,2.8509,2.8545,2.8588,2.865,2.8697,2.8725,2.876,2.881,2.8881,2.8853,2.888,2.8873,2.8916,2.9008,2.8881,2.8881,2.8901,2.9114,2.9133,2.9151,2.8994,2.8996,2.8999,2.911,0,2.8551,2.866,2.8653,2.8755,2.8805,2.8776,2.883,2.8856,2.8863,2.8905,2.8912,2.8962,2.8924,2.8938,2.8979,2.8988,2.905,2.8981,2.9037,2.9039,2.9027,2.917,2.9192,2.9295,2.9124,2.9127,2.9129,0,2.8704,2.8742,2.8848,2.8872,2.8893,2.8942,2.8982,2.9024,2.9052,2.9053,2.9082,2.9067,2.9127,2.9075,2.9157,2.9109,2.9132,2.914,2.9144,2.9147,2.9088,2.9174,2.9329,2.9343,2.9151,2.915,2.9148,0,2.8805,2.8883,2.8955,2.8973,2.9004,2.9038,2.9052,2.9077,2.9105,2.914,2.9157,2.92,2.9222,2.9254,2.925,2.9213,2.9332,2.9281,2.9332,2.9332,2.9357,2.9355,2.9514,2.9377,2.9377,2.9376,2.9376,0,2.8937,2.9002,2.9,2.9044,2.9115,2.9107,2.9177,2.9188,2.921,2.9254,2.9232,2.9274,2.9268,2.9309,2.9306,2.9372,2.9383,2.9384,2.9382,2.9385,2.9384,2.9398,2.9389,2.9381,2.938,2.9379,2.9378,0,2.9061,2.9063,2.9139,2.9161,2.9168,2.9219,2.9238,2.9278,2.9283,2.9339,2.9351,2.9357,2.9404,2.9404,2.9458,2.9456,2.9535,2.9527,2.9526,2.9523,2.9573,2.9567,2.9745,2.9766,2.9618,2.9619,2.962,0,2.9144,2.9193,2.922,2.9247,2.9263,2.9309,2.9336,2.9329,2.9358,2.9392,2.9428,2.9472,2.9508,2.9584,2.9592,2.9633,2.9623,2.9682,2.9629,2.9628,2.9619,2.9615,2.9618,2.9692,2.9694,2.9695,2.9696,0,2.9289,2.9286,2.9326,2.9366,2.9398,2.9429,2.9458,2.9482,2.9477,2.951,2.9558,2.9585,2.9639,2.9682,2.972,2.9734,2.9713,2.9713,2.9726,2.9728,2.9724,2.9723,2.9551,2.9709,2.9707,2.9706,2.9706,2.9705,2.9393,2.9433,2.9457,2.9501,2.9521,2.9547,2.9585,2.9593,2.9633,2.9675,2.9669,2.9721,2.9744,2.9793,2.981,2.9849,2.9828,2.9849,2.9853,2.9857,2.9861,2.972,2.9856,2.9856,2.9856,2.9855,2.9855,0,2.9533,2.9547,2.9587,2.9626,2.966,2.9639,2.9668,2.9697,2.9743,2.9767,2.9801,2.9854,2.9895,2.9906,2.9945,2.9974,2.9965,2.9984,2.9981,2.9983,2.988,2.9862,2.999,2.999,2.999,2.999,2.999,2.999,2.9611,2.9677,2.9676,2.9751,2.9764,2.9814,2.9832,2.9855,2.9873,2.9932,2.9966,2.9973,2.9991,3.003,3.0066,3.0068,3.0082,3.0104,3.0102,3.0005,2.9991,2.9978,2.9961,3.0108,3.0108,3.0202,3.0203,3.0203]},{"header":{"parameterUnit":"m.s-1","parameterCategory":1,"la1":30.2991,"la2":30.254,"lo1":-89.0895,"lo2":-89.0444,"dy":0.0017,"dx":0.0017,"nx":28,"ny":28,"refTime":"2025-09-03T09:00:00:Z","depth":0,"parameterNumber":3,"parameterNumberName":"V-component_of_WINDS"},"data":[0,0,0,0,0,0,0,0,0,0,0,0,0,0,0,0,0,0,0,0,0,0,0,0,0,0,0,0,0,0,0,0,0,0,0,0,0,0,0,0,0,0,0,0,0,0,0,0,0,0,0,0,0,0,0,0,0,0,0.692,0.6921,0,0.7049,0.7051,0.7052,0.7071,0.707,0.7069,0.7067,0.7206,0.7211,0.7216,0,0,0,0,0,0,0,0,0,0,0,0,0,0.6694,0.6698,0.692,0.6921,0.6923,0.7049,0.7051,0.7053,0.7071,0.707,0.7068,0.7067,0.7205,0.7211,0.7216,0,0,0,0,0,0,0,0,0,0,0,0,0,0.6805,0.6699,0.692,0.6947,0.6951,0.7049,0.7051,0.7053,0.7072,0.707,0.7068,0.7066,0.7203,0.721,0.7217,0.7298,0,0,0.7239,0.7242,0,0,0,0,0,0,0,0,0.6798,0.6813,0.6942,0.6946,0.695,0.7042,0.7022,0.7135,0.7072,0.7026,0.7067,0.7065,0.7154,0.7165,0.7193,0.7304,0.731,0.724,0.7244,0.7247,0.7249,0,0,0,0,0,0,0,0.6791,0.6808,0.6971,0.6944,0.6949,0.6955,0.6969,0.7044,0.7099,0.703,0.7032,0.7046,0.7156,0.7186,0.7197,0.7312,0.724,0.7246,0.725,0.7253,0.7495,0.7497,0,0,0,0,0,0,0.6777,0.6801,0.6967,0.6975,0.6868,0.6961,0.6976,0.7014,0.7098,0.7109,0.7048,0.7047,0.7175,0.7188,0.7202,0.7301,0.7247,0.7254,0.7258,0.7493,0.7495,0.7498,0,0,0,0,0,0,0.6772,0.6792,0.6962,0.6889,0.6911,0.6966,0.7009,0.7018,0.7049,0.7111,0.7122,0.7069,0.7174,0.7191,0.7273,0.7306,0.7257,0.7264,0.749,0.7494,0.7497,0.7501,0,0,0,0,0,0,0.6766,0.679,0.682,0.6889,0.6914,0.703,0.7012,0.7022,0.706,0.706,0.7133,0.7144,0.7174,0.7262,0.728,0.7315,0.727,0.7488,0.7492,0.7496,0.7498,0.7503,0.7508,0,0,0,0,0,0.6757,0.6818,0.6822,0.6842,0.6953,0.7032,0.7047,0.7078,0.7063,0.7094,0.7134,0.7142,0.7299,0.727,0.7291,0.7328,0.7486,0.7491,0.7495,0.7495,0.7502,0.7508,0,0,0,0,0,0,0.6755,0.6828,0.6833,0.6917,0.6967,0.7035,0.7076,0.7084,0.7142,0.714,0.7178,0.7195,0.7274,0.731,0.7276,0.741,0.7391,0.74,0.7384,0.7392,0.7397,0.7387,0.7276,0,0,0,0,0,0.6763,0.6819,0.6881,0.6949,0.6974,0.702,0.7056,0.7075,0.713,0.7152,0.7198,0.7253,0.7315,0.7355,0.7416,0.7502,0.7519,0.7538,0.7543,0.7547,0.7555,0.7603,0.7612,0.7513,0.7513,0.7513,0,0,0.6783,0.683,0.6863,0.6949,0.6991,0.7049,0.7038,0.7101,0.7145,0.7163,0.7242,0.7277,0.7341,0.7425,0.7465,0.7457,0.7586,0.7553,0.7556,0.7562,0.7609,0.7618,0.7626,0.7516,0.7516,0.7515,0,0,0.6848,0.6889,0.695,0.6991,0.7053,0.7083,0.7097,0.7162,0.7186,0.7265,0.7279,0.7333,0.7438,0.7483,0.7519,0.7598,0.7607,0.7617,0.7645,0.7691,0.7699,0.7706,0.7734,0.7744,0.7624,0.7624,0.7624,0,0.6866,0.6952,0.6981,0.7042,0.7079,0.7094,0.7157,0.7196,0.7276,0.7302,0.7292,0.7423,0.7467,0.7561,0.758,0.7609,0.7628,0.7609,0.7695,0.7702,0.771,0.7737,0.7747,0.7625,0.7625,0.7625,0.7625,0,0.697,0.703,0.7072,0.7144,0.7187,0.7249,0.7287,0.7327,0.7342,0.7373,0.7454,0.7506,0.7577,0.7601,0.7617,0.7697,0.769,0.7687,0.7669,0.7719,0.7746,0.7756,0.7626,0.7626,0.7625,0.7625,0,0,0.704,0.7125,0.714,0.7173,0.7241,0.7289,0.7351,0.7417,0.745,0.7504,0.7558,0.7645,0.7642,0.7683,0.7705,0.7745,0.7803,0.7737,0.7739,0.7747,0.7895,0.7897,0.7909,0.7809,0.7811,0.7813,0.7889,0,0.7113,0.7222,0.7248,0.7342,0.7398,0.7412,0.7466,0.7514,0.7544,0.7597,0.7632,0.7693,0.7684,0.7708,0.7749,0.7788,0.7834,0.7782,0.7861,0.7863,0.7845,0.7922,0.7926,0.7996,0.79,0.7901,0.7903,0,0.7214,0.7267,0.7365,0.7424,0.7448,0.7496,0.7559,0.7608,0.7663,0.7683,0.7727,0.7743,0.781,0.7787,0.7879,0.7843,0.7876,0.79,0.7904,0.7913,0.7887,0.7935,0.8019,0.8029,0.7919,0.7918,0.7917,0,0.7255,0.7351,0.7421,0.7449,0.752,0.7553,0.7584,0.7637,0.7675,0.773,0.7755,0.7817,0.7852,0.7901,0.7934,0.7914,0.8023,0.8003,0.8042,0.8041,0.8066,0.8064,0.8157,0.8086,0.8085,0.8085,0.8085,0,0.7335,0.7395,0.744,0.7484,0.7551,0.7581,0.7648,0.768,0.7726,0.7777,0.7794,0.7842,0.7882,0.7936,0.7963,0.8035,0.805,0.8068,0.8075,0.8067,0.8065,0.8091,0.8087,0.8088,0.8087,0.8087,0.8086,0,0.7392,0.7425,0.7503,0.7563,0.7579,0.7626,0.7677,0.7721,0.775,0.7815,0.7832,0.7879,0.7943,0.798,0.8062,0.8079,0.8159,0.8163,0.814,0.8143,0.818,0.8176,0.8293,0.831,0.8227,0.8228,0.8228,0,0.7442,0.7487,0.755,0.7584,0.7615,0.767,0.7708,0.7739,0.7777,0.7842,0.7878,0.7942,0.7995,0.8096,0.8139,0.8201,0.8207,0.8244,0.8217,0.8207,0.8208,0.8205,0.821,0.8249,0.825,0.8251,0.8251,0,0.7525,0.7538,0.7591,0.7648,0.7691,0.7739,0.7786,0.7814,0.7853,0.7895,0.7959,0.8,0.8081,0.8145,0.821,0.8244,0.8255,0.8259,0.8271,0.8264,0.8249,0.8258,0.8153,0.8256,0.8256,0.8255,0.8255,0.8255,0.7581,0.7621,0.7671,0.7728,0.7766,0.7809,0.7853,0.7886,0.7939,0.8006,0.8021,0.8088,0.8141,0.8229,0.8265,0.8319,0.8313,0.8331,0.8335,0.8339,0.834,0.8239,0.8331,0.8331,0.833,0.833,0.833,0,0.7665,0.7697,0.7749,0.7813,0.7858,0.786,0.7912,0.795,0.8008,0.8056,0.8106,0.8179,0.8241,0.8287,0.835,0.8384,0.839,0.84,0.8398,0.8406,0.8342,0.8325,0.8393,0.8393,0.8393,0.8393,0.8393,0.8393,0.7714,0.7783,0.7802,0.7889,0.7922,0.7985,0.8015,0.8055,0.8093,0.8172,0.8222,0.8251,0.8298,0.8364,0.842,0.8432,0.8455,0.8464,0.8477,0.8417,0.841,0.8404,0.8388,0.8468,0.8468,0.8536,0.8536,0.8537]}]]